FW4751 Weather Reports


time (UTC)temp
C
wind
direction
speed
KPH
gust
KPH
rain 1hr
cm
rain 24hr
cm
rain mn
cm
humidity
%
barometer
mb
20260903180505 24 135 1.6 8.0 0.00 0.00 0.00 55 1014.7
20260903180010 23 113 1.6 8.0 0.00 0.00 0.00 57 1014.8
20260903175505 23 135 1.6 4.8 0.00 0.00 0.00 58 1014.9
20260903175010 23 135 1.6 6.4 0.00 0.00 0.00 57 1015.0
20260903174531 23 135 1.6 4.8 0.00 0.00 0.00 58 1015.1
20260903174009 23 113 1.6 6.4 0.00 0.00 0.00 59 1015.1
20260903173510 22 135 1.6 3.2 0.00 0.00 0.00 59 1015.1
20260903173009 22 158 3.2 6.4 0.00 0.00 0.00 58 1015.2
20260903172509 22 113 1.6 4.8 0.00 0.00 0.00 60 1015.1
20260903172005 22 135 1.6 4.8 0.00 0.00 0.00 60 1015.2
20260903171510 22 135 1.6 4.8 0.00 0.00 0.00 60 1015.2
20260903171009 22 135 1.6 4.8 0.00 0.00 0.00 60 1015.3
20260903170529 22 158 1.6 3.2 0.00 0.00 0.00 60 1015.3
20260903170004 22 135 1.6 3.2 0.00 0.00 0.00 62 1015.4
20260903165504 22 113 1.6 4.8 0.00 0.00 0.00 62 1015.4
20260903165024 22 135 1.6 4.8 0.00 0.00 0.00 62 1015.4
20260903164504 22 180 1.6 4.8 0.00 0.00 0.00 62 1015.4
20260903164004 21 180 1.6 6.4 0.00 0.00 0.00 62 1015.4
20260903163529 21 113 1.6 6.4 0.00 0.00 0.00 65 1015.5
20260903163004 21 135 1.6 3.2 0.00 0.00 0.00 66 1015.6
20260903162504 20 135 1.6 3.2 0.00 0.00 0.00 67 1015.7
20260903162025 20 135 1.6 4.8 0.00 0.00 0.00 68 1015.6
20260903161509 20 180 1.6 4.8 0.00 0.00 0.00 69 1015.6
20260903161030 20 180 3.2 6.4 0.00 0.00 0.00 70 1015.6
20260903160529 19 180 1.6 3.2 0.00 0.00 0.00 72 1015.8
20260903160004 19 158 1.6 6.4 0.00 0.00 0.00 73 1015.8
20260903155529 18 135 1.6 4.8 0.00 0.00 0.00 74 1015.8
20260903155004 18 158 3.2 6.4 0.00 0.00 0.00 76 1015.7
20260903154509 18 135 1.6 4.8 0.00 0.00 0.00 78 1015.7
20260903154004 17 135 1.6 4.8 0.00 0.00 0.00 78 1015.8
20260903153505 17 135 1.6 3.2 0.00 0.00 0.00 79 1015.9
20260903153004 17 135 1.6 4.8 0.00 0.00 0.00 79 1015.9
20260903152504 17 180 1.6 4.8 0.00 0.00 0.00 79 1016.0
20260903152004 16 180 1.6 4.8 0.00 0.00 0.00 80 1016.1
20260903151504 16 158 1.6 3.2 0.00 0.00 0.00 80 1016.0
20260903151004 16 135 1.6 1.6 0.00 0.00 0.00 82 1016.1
20260903150504 15 180 1.6 3.2 0.00 0.00 0.00 87 1015.9
20260903150004 14 203 1.6 3.2 0.00 0.00 0.00 89 1015.9
20260903145504 13 158 1.6 3.2 0.00 0.00 0.00 89 1016.0
20260903145024 13 135 1.6 3.2 0.00 0.00 0.00 90 1016.0
20260903144509 13 135 1.6 3.2 0.00 0.00 0.00 90 1016.0
20260903144009 13 135 1.6 3.2 0.00 0.00 0.00 90 1016.1
20260903143504 13 158 1.6 4.8 0.00 0.00 0.00 90 1016.0
20260903143005 12 135 1.6 4.8 0.00 0.00 0.00 90 1016.0
20260903142504 12 0.0 1.6 0.00 0.00 0.00 90 1015.9
20260903142004 12 0.0 3.2 0.00 0.00 0.00 89 1015.8
20260903141504 12 0.0 1.6 0.00 0.00 0.00 89 1015.9
20260903141004 12 0.0 1.6 0.00 0.00 0.00 89 1015.8
20260903140504 12 0.0 1.6 0.00 0.00 0.00 89 1016.0
20260903140004 12 0.0 1.6 0.00 0.00 0.00 89 1015.9
20260903135509 12 0.0 1.6 0.00 0.00 0.00 88 1015.8
20260903135024 12 0.0 1.6 0.00 0.00 0.00 88 1015.9
20260903134504 12 0.0 1.6 0.00 0.00 0.00 88 1015.7
20260903134004 12 0.0 1.6 0.00 0.00 0.00 88 1015.7
20260903133504 12 0.0 1.6 0.00 0.00 0.00 88 1015.7
20260903133004 12 0.0 1.6 0.00 0.00 0.00 88 1015.7
20260903132504 12 0.0 1.6 0.00 0.00 0.00 88 1015.8
20260903132004 12 0.0 1.6 0.00 0.00 0.00 88 1015.7
20260903131504 12 0.0 1.6 0.00 0.00 0.00 88 1015.7
20260903131004 12 0.0 0.0 0.00 0.00 0.00 88 1015.6
20260903130504 12 0.0 1.6 0.00 0.00 0.00 88 1015.7
20260903130004 12 0.0 1.6 0.00 0.00 0.00 88 1015.6
20260903125504 12 0.0 0.0 0.00 0.00 0.00 88 1015.6
20260903125004 12 0.0 1.6 0.00 0.00 0.00 88 1015.6
20260903124524 12 0.0 1.6 0.00 0.00 0.00 88 1015.7
20260903124004 12 0.0 1.6 0.00 0.00 0.00 88 1015.6
20260903123509 12 0.0 1.6 0.00 0.00 0.00 88 1015.8
20260903123004 12 0.0 1.6 0.00 0.00 0.00 88 1015.8
20260903122504 12 0.0 0.0 0.00 0.00 0.00 87 1015.7
20260903122004 12 0.0 0.0 0.00 0.00 0.00 87 1015.7
20260903121504 12 0.0 1.6 0.00 0.00 0.00 87 1015.8
20260903121004 12 0.0 0.0 0.00 0.00 0.00 87 1015.7
20260903120524 12 0.0 1.6 0.00 0.00 0.00 87 1015.9
20260903120004 12 0.0 1.6 0.00 0.00 0.00 87 1015.9
20260903115504 12 0.0 1.6 0.00 0.00 0.00 87 1015.9
20260903115003 12 0.0 1.6 0.00 0.00 0.00 86 1016.0
20260903114605 12 0.0 1.6 0.00 0.00 0.00 86 1016.0
20260903114004 12 0.0 1.6 0.00 0.00 0.00 86 1015.9
20260903113503 12 0.0 1.6 0.00 0.00 0.00 86 1016.1
20260903113004 12 0.0 1.6 0.00 0.00 0.00 86 1016.1
20260903112504 12 0.0 1.6 0.00 0.00 0.00 86 1016.2
20260903112009 12 0.0 1.6 0.00 0.00 0.00 86 1016.2
20260903111504 12 0.0 1.6 0.00 0.00 0.00 85 1016.3
20260903111003 12 0.0 1.6 0.00 0.00 0.00 85 1016.3
20260903110504 12 0.0 1.6 0.00 0.00 0.00 85 1016.3
20260903110008 12 0.0 1.6 0.00 0.00 0.00 85 1016.3
20260903105524 12 0.0 1.6 0.00 0.00 0.00 86 1016.3
20260903105004 13 0.0 1.6 0.00 0.00 0.00 86 1016.4
20260903104504 13 0.0 1.6 0.00 0.00 0.00 86 1016.4
20260903104008 13 0.0 1.6 0.00 0.00 0.00 86 1016.4
20260903103523 13 0.0 1.6 0.00 0.00 0.00 86 1016.4
20260903103029 13 0.0 1.6 0.00 0.00 0.00 86 1016.4
20260903102510 13 0.0 1.6 0.00 0.00 0.00 86 1016.4
20260903102003 13 0.0 1.6 0.00 0.00 0.00 86 1016.3
20260903101504 13 0.0 1.6 0.00 0.00 0.00 85 1016.4
20260903101003 13 0.0 1.6 0.00 0.00 0.00 85 1016.4
20260903100508 13 0.0 1.6 0.00 0.00 0.00 85 1016.3
20260903100044 13 0.0 1.6 0.00 0.00 0.00 85 1016.4
20260903095503 13 0.0 1.6 0.00 0.00 0.00 85 1016.4
20260903095003 13 0.0 1.6 0.00 0.00 0.00 85 1016.5
20260903094509 13 0.0 1.6 0.00 0.00 0.00 85 1016.5
20260903094003 13 0.0 1.6 0.00 0.00 0.00 85 1016.5
20260903093503 13 0.0 1.6 0.00 0.00 0.00 85 1016.6
20260903093008 13 0.0 1.6 0.00 0.00 0.00 84 1016.7
20260903092528 13 0.0 1.6 0.00 0.00 0.00 84 1016.7
20260903092024 13 0.0 1.6 0.00 0.00 0.00 84 1016.8
20260903091523 13 0.0 1.6 0.00 0.00 0.00 84 1016.8
20260903091003 13 0.0 1.6 0.00 0.00 0.00 84 1016.8
20260903090503 13 0.0 1.6 0.00 0.00 0.00 84 1016.9
20260903090004 13 0.0 1.6 0.00 0.00 0.00 84 1017.0
20260903085503 13 0.0 1.6 0.00 0.00 0.00 84 1016.9
20260903085008 13 0.0 1.6 0.00 0.00 0.00 83 1017.0
20260903084503 13 0.0 1.6 0.00 0.00 0.00 83 1016.9
20260903084024 13 0.0 1.6 0.00 0.00 0.00 83 1016.9
20260903083523 13 0.0 1.6 0.00 0.00 0.00 83 1017.0
20260903083008 13 0.0 1.6 0.00 0.00 0.00 83 1017.0
20260903082503 14 0.0 0.0 0.00 0.00 0.00 83 1016.9
20260903082003 14 0.0 1.6 0.00 0.00 0.00 83 1017.0
20260903081528 14 0.0 1.6 0.00 0.00 0.00 83 1017.1
20260903081008 14 0.0 1.6 0.00 0.00 0.00 83 1017.0
20260903080528 14 0.0 1.6 0.00 0.00 0.00 83 1017.1
20260903080004 14 0.0 1.6 0.00 0.00 0.00 83 1017.0
20260903075503 14 0.0 1.6 0.00 0.00 0.00 83 1017.0
20260903075008 14 0.0 1.6 0.00 0.00 0.00 83 1016.8
20260903074503 15 0.0 1.6 0.00 0.00 0.00 83 1016.8
20260903074023 15 0.0 1.6 0.00 0.00 0.00 83 1016.8
20260903073508 15 0.0 1.6 0.00 0.00 0.00 83 1016.9
20260903073008 15 0.0 0.0 0.00 0.00 0.00 83 1016.7
20260903072503 15 0.0 1.6 0.00 0.00 0.00 83 1016.7
20260903072003 15 0.0 1.6 0.00 0.00 0.00 83 1016.7
20260903071508 15 0.0 0.0 0.00 0.00 0.00 83 1016.7
20260903071003 15 0.0 1.6 0.00 0.00 0.00 83 1016.8
20260903070503 15 0.0 1.6 0.00 0.00 0.00 83 1016.7
20260903070005 15 0.0 1.6 0.00 0.00 0.00 83 1016.7
20260903065528 15 0.0 0.0 0.00 0.00 0.00 82 1016.8
20260903065003 15 0.0 1.6 0.00 0.00 0.00 82 1016.9
20260903064508 15 0.0 1.6 0.00 0.00 0.00 82 1016.7
20260903064003 16 0.0 1.6 0.00 0.00 0.00 82 1016.8
20260903063503 16 0.0 1.6 0.00 0.00 0.00 81 1016.8
20260903063005 16 0.0 1.6 0.00 0.00 0.00 82 1016.8
20260903062510 16 0.0 1.6 0.00 0.00 0.00 82 1016.9
20260903062005 16 0.0 1.6 0.00 0.00 0.00 82 1016.8
20260903061505 16 0.0 1.6 0.00 0.00 0.00 81 1016.8
20260903061010 16 0.0 1.6 0.00 0.00 0.00 81 1016.8
20260903060550 16 0.0 1.6 0.00 0.00 0.00 81 1016.8
20260903060005 16 0.0 1.6 0.00 0.00 0.00 80 1016.9
20260903055505 16 0.0 1.6 0.00 0.00 0.00 80 1016.9
20260903055005 16 0.0 1.6 0.00 0.00 0.00 79 1016.9
20260903054505 16 0.0 1.6 0.00 0.00 0.00 80 1017.0
20260903054025 16 0.0 1.6 0.00 0.00 0.00 79 1017.0
20260903053505 16 0.0 1.6 0.00 0.00 0.00 79 1017.0
20260903053010 16 0.0 1.6 0.00 0.00 0.00 79 1017.0
20260903052505 16 0.0 3.2 0.00 0.00 0.00 79 1017.0
20260903052010 16 23 1.6 3.2 0.00 0.00 0.00 78 1017.0
20260903051509 17 315 1.6 3.2 0.00 0.00 0.00 78 1017.0
20260903051025 17 0.0 1.6 0.00 0.00 0.00 77 1017.0
20260903050505 17 0.0 3.2 0.00 0.00 0.00 77 1017.2
20260903050009 17 0 1.6 3.2 0.00 0.00 0.00 77 1017.1
20260903045509 17 0 1.6 4.8 0.00 0.00 0.00 77 1017.1
20260903045009 17 23 1.6 6.4 0.00 0.00 0.00 77 1017.2
20260903044505 17 0 1.6 3.2 0.00 0.00 0.00 76 1017.2
20260903044004 17 0.0 1.6 0.00 0.00 0.00 76 1017.1
20260903043509 17 0.0 1.6 0.00 0.00 0.00 75 1017.1
20260903043009 17 0.0 1.6 0.00 0.00 0.00 74 1017.1
20260903042505 17 0.0 1.6 0.00 0.00 0.00 74 1017.1
20260903042005 17 0.0 1.6 0.00 0.00 0.00 73 1017.1
20260903041524 17 0.0 1.6 0.00 0.00 0.00 72 1016.9
20260903041004 17 0.0 1.6 0.00 0.00 0.00 71 1016.9
20260903040509 17 0.0 1.6 0.00 0.00 0.00 71 1016.8
20260903040009 17 0.0 1.6 0.00 0.00 0.00 70 1016.7
20260903035505 18 0.0 1.6 0.00 0.00 0.00 70 1016.7
20260903035005 18 0.0 1.6 0.00 0.00 0.00 70 1016.7
20260903034505 18 0.0 1.6 0.00 0.00 0.00 69 1016.7
20260903034008 18 0.0 1.6 0.00 0.00 0.00 69 1016.5
20260903033530 18 0.0 1.6 0.00 0.00 0.00 68 1016.5
20260903033005 18 0.0 3.2 0.00 0.00 0.00 68 1016.3
20260903032504 18 0.0 1.6 0.00 0.00 0.00 68 1016.4
20260903032005 18 0.0 1.6 0.00 0.00 0.00 67 1016.3
20260903031504 18 0.0 1.6 0.00 0.00 0.00 67 1016.5
20260903031009 19 0 1.6 4.8 0.00 0.00 0.00 66 1016.3
20260903030509 19 338 1.6 3.2 0.00 0.00 0.00 66 1016.3
20260903030005 19 338 1.6 6.4 0.00 0.00 0.00 65 1016.3
20260903025510 20 338 1.6 4.8 0.00 0.00 0.00 64 1016.1
20260903025045 20 0 1.6 3.2 0.00 0.00 0.00 63 1016.1
20260903024509 20 338 1.6 3.2 0.00 0.00 0.00 62 1016.3
20260903024009 20 315 1.6 3.2 0.00 0.00 0.00 61 1016.1
20260903023509 21 338 1.6 4.8 0.00 0.00 0.00 60 1016.2
20260903023004 21 338 1.6 4.8 0.00 0.00 0.00 60 1016.1
20260903022509 21 338 1.6 4.8 0.00 0.00 0.00 58 1016.0
20260903022009 22 315 1.6 6.4 0.00 0.00 0.00 56 1016.0
20260903021509 22 315 1.6 3.2 0.00 0.00 0.00 54 1016.0
20260903021009 22 315 1.6 4.8 0.00 0.00 0.00 54 1016.1
20260903020529 22 0.0 1.6 0.00 0.00 0.00 53 1016.0
20260903020009 23 315 1.6 6.4 0.00 0.00 0.00 51 1016.2
20260903015529 23 315 1.6 4.8 0.00 0.00 0.00 51 1016.1
20260903015004 23 338 1.6 6.4 0.00 0.00 0.00 48 1016.0
20260903014509 23 315 1.6 4.8 0.00 0.00 0.00 49 1016.1
20260903014009 23 315 1.6 6.4 0.00 0.00 0.00 51 1016.2
20260903013505 23 248 1.6 3.2 0.00 0.00 0.00 48 1016.2
20260903013009 23 315 1.6 6.4 0.00 0.00 0.00 48 1016.1
20260903012509 23 315 3.2 9.7 0.00 0.00 0.00 48 1016.0
20260903012004 23 315 3.2 8.0 0.00 0.00 0.00 48 1016.0
20260903011529 23 338 3.2 8.0 0.00 0.00 0.00 51 1015.9
20260903011004 23 315 1.6 6.4 0.00 0.00 0.00 53 1016.0
20260903010544 23 315 3.2 6.4 0.00 0.00 0.00 53 1015.9
20260903010004 23 315 1.6 6.4 0.00 0.00 0.00 54 1016.1
20260903005504 23 338 3.2 8.0 0.00 0.00 0.00 54 1015.9
20260903005004 23 338 3.2 9.7 0.00 0.00 0.00 54 1016.0
20260903004504 23 338 3.2 8.0 0.00 0.00 0.00 54 1016.1
20260903004004 23 338 4.8 11.3 0.00 0.00 0.00 54 1015.9
20260903003504 24 0 3.2 8.0 0.00 0.00 0.00 53 1016.0
20260903003004 24 338 3.2 9.7 0.00 0.00 0.00 53 1016.1
20260903002524 25 0 1.6 8.0 0.00 0.00 0.00 53 1016.0
20260903002004 25 315 3.2 9.7 0.00 0.00 0.00 53 1016.1
20260903001544 25 315 3.2 9.7 0.00 0.00 0.00 52 1016.2
20260903001004 25 315 3.2 9.7 0.00 0.00 0.00 52 1016.2
20260903000524 25 293 3.2 8.0 0.00 0.00 0.00 49 1016.1
20260903000004 25 315 3.2 11.3 0.00 0.00 0.00 50 1016.2
20260902235504 25 315 1.6 6.4 0.00 0.00 0.00 51 1016.1
20260902235004 25 315 3.2 9.7 0.00 0.00 0.00 51 1016.2
20260902234504 25 315 3.2 8.0 0.00 0.00 0.00 52 1016.2
20260902234009 25 338 3.2 9.7 0.00 0.00 0.00 52 1016.3
20260902233504 26 0 3.2 9.7 0.00 0.00 0.00 52 1016.1
20260902233024 26 315 3.2 9.7 0.00 0.00 0.00 51 1016.1
20260902232524 26 315 3.2 8.0 0.00 0.00 0.00 53 1016.1
20260902232024 26 315 3.2 9.7 0.00 0.00 0.00 53 1016.0
20260902231509 26 315 3.2 8.0 0.00 0.00 0.00 53 1016.2
20260902231004 25 315 4.8 12.9 0.00 0.00 0.00 53 1016.1
20260902230504 26 315 4.8 11.3 0.00 0.00 0.00 52 1016.1
20260902230024 26 315 4.8 11.3 0.00 0.00 0.00 52 1016.1
20260902225504 26 315 4.8 12.9 0.00 0.00 0.00 52 1016.2
20260902225009 26 315 3.2 11.3 0.00 0.00 0.00 51 1016.2
20260902224504 26 225 4.8 14.5 0.00 0.00 0.00 52 1016.2
20260902224004 26 315 3.2 11.3 0.00 0.00 0.00 52 1016.3
20260902223529 26 315 3.2 12.9 0.00 0.00 0.00 52 1016.3
20260902223009 26 315 1.6 8.0 0.00 0.00 0.00 53 1016.5
20260902222504 26 315 4.8 9.7 0.00 0.00 0.00 53 1016.4
20260902222024 26 315 4.8 9.7 0.00 0.00 0.00 53 1016.6
20260902221504 26 315 3.2 8.0 0.00 0.00 0.00 53 1016.6
20260902221024 26 315 3.2 9.7 0.00 0.00 0.00 53 1016.6
20260902220529 26 248 3.2 12.9 0.00 0.00 0.00 53 1016.7
20260902220024 26 225 3.2 9.7 0.00 0.00 0.00 53 1016.7
20260902215504 26 315 3.2 11.3 0.00 0.00 0.00 54 1016.8
20260902215008 26 315 3.2 12.9 0.00 0.00 0.00 54 1016.8
20260902214508 26 315 3.2 9.7 0.00 0.00 0.00 54 1017.0
20260902214004 26 315 3.2 12.9 0.00 0.00 0.00 54 1017.0
20260902213508 26 248 3.2 6.4 0.00 0.00 0.00 55 1016.9
20260902213004 26 315 3.2 14.5 0.00 0.00 0.00 56 1016.9
20260902212504 26 315 3.2 11.3 0.00 0.00 0.00 56 1017.0
20260902212003 25 315 3.2 12.9 0.00 0.00 0.00 56 1017.0
20260902211504 25 225 3.2 9.7 0.00 0.00 0.00 57 1017.0
20260902211009 25 225 4.8 14.5 0.00 0.00 0.00 56 1017.1
20260902210504 25 225 4.8 14.5 0.00 0.00 0.00 56 1017.0
20260902210004 26 225 4.8 14.5 0.00 0.00 0.00 55 1017.0
20260902205509 26 248 3.2 12.9 0.00 0.00 0.00 56 1017.2
20260902205004 26 225 4.8 12.9 0.00 0.00 0.00 56 1017.1
20260902204509 26 225 4.8 12.9 0.00 0.00 0.00 55 1017.2
20260902204004 25 225 3.2 12.9 0.00 0.00 0.00 56 1017.1
20260902203505 25 225 3.2 9.7 0.00 0.00 0.00 56 1017.2
20260902203009 25 225 3.2 6.4 0.00 0.00 0.00 56 1017.3
20260902202504 25 225 4.8 11.3 0.00 0.00 0.00 57 1017.3
20260902202003 25 315 1.6 6.4 0.00 0.00 0.00 56 1017.3
20260902201508 25 315 3.2 8.0 0.00 0.00 0.00 55 1017.3
20260902201003 25 225 3.2 9.7 0.00 0.00 0.00 53 1017.2
20260902200503 26 225 1.6 6.4 0.00 0.00 0.00 54 1017.2
20260902200008 26 225 3.2 8.0 0.00 0.00 0.00 53 1017.5
20260902195508 26 315 3.2 6.4 0.00 0.00 0.00 53 1017.6
20260902195008 26 315 3.2 9.7 0.00 0.00 0.00 52 1017.8
20260902194503 26 270 3.2 12.9 0.00 0.00 0.00 51 1017.8
20260902194024 26 225 3.2 12.9 0.00 0.00 0.00 51 1017.8
20260902193508 26 225 3.2 9.7 0.00 0.00 0.00 50 1017.6
20260902193008 26 270 1.6 8.0 0.00 0.00 0.00 51 1017.7
20260902192529 25 248 3.2 9.7 0.00 0.00 0.00 52 1017.8
20260902192006 25 225 3.2 6.4 0.00 0.00 0.00 54 1017.7
20260902191509 25 248 3.2 8.0 0.00 0.00 0.00 54 1017.7
20260902191029 25 225 4.8 11.3 0.00 0.00 0.00 55 1017.7
20260902190508 25 225 3.2 9.7 0.00 0.00 0.00 53 1017.6
20260902190009 25 270 1.6 6.4 0.00 0.00 0.00 54 1017.8
20260902185528 25 225 3.2 6.4 0.00 0.00 0.00 54 1017.6
20260902185008 25 225 1.6 8.0 0.00 0.00 0.00 53 1017.7
20260902184508 26 225 3.2 8.0 0.00 0.00 0.00 52 1017.7
20260902184008 25 225 3.2 8.0 0.00 0.00 0.00 54 1017.7
20260902183543 25 270 3.2 9.7 0.00 0.00 0.00 55 1017.7
20260902183006 25 225 3.2 8.0 0.00 0.00 0.00 54 1017.8
20260902182503 25 225 3.2 9.7 0.00 0.00 0.00 55 1017.7
20260902182004 25 225 3.2 8.0 0.00 0.00 0.00 55 1017.7
20260902181508 25 225 1.6 6.4 0.00 0.00 0.00 55 1017.9
20260902181008 25 225 1.6 6.4 0.00 0.00 0.00 55 1017.7